Retour au catalogue

SL-8 DEB

ActifLEO
NORAD 39835·DEBRIS·🇷🇺 Russia

Lancé Feb 12, 1991 depuis Plesetsk Cosmodrome

Loading…

Prochains Passages (prochaines 24 heures)

TLE

VieillissantSource: Space-Track

Époque: Sep 12, 2026, 09:52 UTC

1 39835U 91009DT  26255.41157865  .00000202  00000-0  18747-2 0  9997
2 39835  74.0448  48.8987 0185917 103.5402 258.6421 12.24185830548512

Suivez SL-8 DEB en temps réel avec AllMySat

Download on the App Store